SCP
0 0 0 0 0 0 0 0 0 0 0 0 0 0 0 0 0 0 0 0 0 0 0 0 0 0 0 0 0 0 0 0
0 0 0 0 0 0 0 0 0 0 0 0 0 0 0 0 0 0 0 0 0 0 0 0 0 0 0 0 0 0 0 0
0 0 0 0 0 0 0 0 0 0 0 0 0 0 0 0 0 0 0 0 0 0 0 0 0 0 0 0 0 0 0 0
0 0 0 0 0 0 0 0 0 0 0 0 0 0 0 0 0 0 0 0 0 0 0 0 0 0 0 0 0 0 0 0
0 0 0 0 0 0 0 0 -0 0 0 0 0 0 0 0 0 0 0 0 0 0 0 0 0 0 0 0 0 0 0 0
0 0 0 0 0 0 0 -0 -0 0 0 0 0 0 0 0 0 0 0 0 0 0 0 0 0 0 0 0 0 0 0 0
0 0 0 0 0 0 0 -0 -0 0 0 0 -0 -0 0 0 0 0 0 0 0 0 0 0 0 0 0 0 0 0 0 0
0 0 0 0 0 0 0 -0 -0 -0 0 -0 -0 -0 -0 -0 0 0 0 0 0 0 0 0 0 0 0 0 0 0 0 0
0 0 0 0 0 0 0 -0 -0 -0 -0 -0 -0 -0 0 0 0 0 0 0 0 0 0 0 0 0 0 0 0 0 0 0
0 0 0 0 0 0 0 -0 -0 -0 -0 -0 -0 -0 -0 -0 -0 0 0 0 0 0 0 0 0 0 0 0 0 0 0 0
0 0 0 0 0 0 0 0 0 -0 0 -0 -0 -0 -0 -0 -0 0 0 0 0 0 0 0 0 0 0 0 0 0 0 0
0 0 0 0 0 0 0 0 0 0 0 0 0 0 0 -0 -0 0 0 0 0 0 0 0 0 0 0 0 0 0 0 0
0 0 0 0 0 0 0 0 0 0 0 0 0 -0 0 0 0 0 0 0 0 0 0 0 0 0 0 0 0 0 0 0
0 0 0 0 0 0 0 0 0 0 0 0 0 0 0 0 0 0 0 0 0 0 0 0 0 0 0 0 0 0 0 0
0 0 0 0 0 0 0 0 0 0 0 0 0 0 0 0 0 0 0 0 0 0 0 0 0 0 0 0 0 0 0 0
0 0 0 0 0 0 0 0 0 0 0 0 0 0 0 0 0 0 0 0 0 0 0 0 0 0 0 0 0 0 0 0
0 0 0 0 0 0 0 0 0 0 0 0 0 0 0 0 0 0 0 0 0 0 0 0 0 0 0 0 0 0 0 0
0 0 0 0 0 0 0 0 0 0 0 0 0 0 0 0 0 0 0 0 0 0 0 0 0 0 0 0 0 0 0 0
0 0 0 0 0 0 0 0 0 0 0 0 0 0 0 0 0 0 0 0 0 0 0 0 0 0 0 0 0 0 0 0
Wind_Speed_500mb
57 59 75 84 75 61 56 53 47 39 37 39 39 43 46 61 59 63 73 83 79 92 87 89 83 85 96 89 79 72 64 57
55 54 64 74 71 65 63 56 45 40 43 46 45 46 48 51 63 62 70 89 89 93 91 87 84 90 103 96 85 76 65 62
57 51 57 69 75 70 64 54 43 37 42 43 48 50 50 50 58 70 73 68 84 91 91 87 85 93 102 98 96 84 69 69
57 53 59 70 78 74 64 49 37 32 35 37 35 37 40 50 55 76 54 69 86 87 84 85 84 90 100 101 103 92 81 73
49 57 64 75 80 73 57 46 34 32 36 34 32 33 46 40 53 82 66 61 70 75 77 75 81 87 93 101 102 93 87 79
51 57 65 73 78 73 57 45 35 35 39 32 28 29 37 35 52 70 72 69 76 70 67 66 71 78 88 95 101 93 84 82
43 42 56 65 70 67 59 46 37 38 37 32 36 32 33 38 51 61 67 78 75 73 71 71 75 76 84 84 90 98 84 76
39 47 60 71 70 71 60 49 42 42 40 34 36 34 34 33 44 68 69 79 85 81 74 73 67 77 67 71 77 94 89 78
33 55 65 77 72 72 63 52 44 44 43 36 36 34 35 34 32 44 67 76 76 79 72 68 64 76 82 74 78 80 77 74
47 62 68 73 76 73 65 52 44 44 46 40 33 32 32 31 35 36 48 58 73 73 79 79 71 65 81 81 82 86 80 76
54 62 68 67 71 71 61 50 42 42 42 40 35 29 25 25 27 34 42 43 55 69 72 68 64 59 63 82 74 78 86 86
43 48 60 65 69 67 58 48 41 40 40 40 33 30 30 26 23 21 25 32 44 50 52 59 67 60 60 70 81 82 75 79
29 40 50 60 63 57 52 43 36 34 32 32 33 28 28 29 27 25 23 22 29 34 41 44 55 64 62 64 70 76 76 73
31 34 42 48 52 50 42 36 31 28 27 31 36 32 28 27 28 29 28 26 26 30 34 41 43 51 66 69 70 71 76 74
33 31 33 38 41 39 33 29 26 22 20 23 25 28 28 29 29 29 29 28 30 30 33 37 43 52 63 69 74 78 80 83
46 48 46 38 32 25 21 21 23 23 22 20 20 20 23 26 26 26 30 34 37 40 39 40 43 47 51 54 61 68 77 83
44 43 43 42 37 32 27 24 24 23 21 19 21 23 24 26 28 32 34 37 39 40 40 44 50 55 57 59 63 69 72 77
42 40 36 35 35 30 25 20 25 32 30 28 26 23 21 23 27 29 33 37 38 45 48 49 51 51 59 61 59 63 71 76
39 41 37 36 35 39 30 30 31 31 32 28 25 25 28 31 31 31 29 32 38 39 43 45 48 61 63 64 65 67 71 74
Wind_Direction_500mb
284 261 246 244 233 228 227 229 234 236 231 221 219 225 223 218 217 219 215 205 205 206 206 204 201 196 196 196 193 193 193 194
279 264 248 238 223 222 223 225 234 236 228 216 215 225 226 222 219 224 219 210 211 211 209 201 199 198 196 196 193 195 189 191
282 253 237 223 217 217 218 225 233 239 226 224 214 216 227 233 220 223 224 221 216 207 204 200 201 199 197 197 196 191 191 187
265 237 225 211 212 216 216 224 232 232 221 213 215 215 224 232 227 214 206 199 189 200 202 201 203 200 198 199 199 198 189 187
255 227 220 211 212 212 213 220 227 221 217 216 217 207 216 210 186 194 192 195 191 202 197 201 205 200 199 200 201 203 203 192
239 225 220 211 209 208 209 214 220 214 211 213 201 210 215 206 205 192 187 190 194 196 198 201 203 204 205 202 201 206 209 210
229 224 217 210 207 205 208 210 212 208 207 202 203 201 207 203 193 198 198 199 197 197 200 200 198 210 210 206 205 207 211 215
215 227 215 211 207 203 206 208 207 205 204 198 199 203 205 205 203 196 200 204 199 199 201 206 205 202 210 213 214 213 214 220
243 234 221 214 206 202 205 206 206 205 201 197 195 200 200 201 210 205 204 206 197 203 207 212 216 202 202 216 214 218 219 224
253 227 219 213 205 202 204 206 206 208 203 200 197 198 203 201 199 211 215 204 209 206 211 217 212 218 209 206 218 223 220 230
236 219 212 208 204 201 202 207 209 208 206 207 204 201 208 205 199 197 206 211 217 214 216 219 224 222 220 213 217 223 230 232
213 210 204 202 199 200 200 202 204 206 205 208 214 202 209 216 212 211 207 212 217 223 230 233 227 221 221 221 227 230 233 237
182 188 193 190 192 193 197 201 203 207 206 208 219 223 217 215 220 224 234 229 221 221 226 234 233 229 226 227 230 234 238 245
153 168 182 182 185 190 193 196 201 203 203 202 211 220 225 231 230 230 241 241 238 238 235 232 237 233 231 234 237 241 243 245
123 146 161 167 177 185 190 190 199 201 203 212 216 213 217 227 233 236 239 243 247 246 247 247 245 242 242 244 247 250 252 254
71 93 114 136 151 167 176 186 203 212 219 224 226 227 225 231 235 233 237 241 245 247 254 258 260 259 257 256 256 255 255 257
54 79 105 115 136 154 169 185 192 196 212 228 238 235 236 239 244 247 248 248 249 251 252 254 256 260 264 266 266 265 266 265
50 63 83 100 114 131 144 163 186 191 200 215 222 229 230 242 248 254 258 260 261 261 260 261 263 266 266 265 266 266 267 269
57 65 76 89 100 111 123 128 139 160 182 198 210 222 227 235 245 249 249 252 260 265 269 271 274 267 268 269 271 271 271 272
Wind_Speed_850mb
57 59 75 84 75 61 56 53 47 39 37 39 39 43 46 61 59 63 73 83 79 92 87 89 83 85 96 89 79 72 64 57
55 54 64 74 71 65 63 56 45 40 43 46 45 46 48 51 63 62 70 89 89 93 91 87 84 90 103 96 85 76 65 62
57 51 57 69 75 70 64 54 43 37 42 43 48 50 50 50 58 70 73 68 84 91 91 87 85 93 102 98 96 84 69 69
57 53 59 70 78 74 64 49 37 32 35 37 35 37 40 50 55 76 54 69 86 87 84 85 84 90 100 101 103 92 81 73
49 57 64 75 80 73 57 46 34 32 36 34 32 33 46 40 53 82 66 61 70 75 77 75 81 87 93 101 102 93 87 79
51 57 65 73 78 73 57 45 35 35 39 32 28 29 37 35 52 70 72 69 76 70 67 66 71 78 88 95 101 93 84 82
43 42 56 65 70 67 59 46 37 38 37 32 36 32 33 38 51 61 67 78 75 73 71 71 75 76 84 84 90 98 84 76
39 47 60 71 70 71 60 49 42 42 40 34 36 34 34 33 44 68 69 79 85 81 74 73 67 77 67 71 77 94 89 78
33 55 65 77 72 72 63 52 44 44 43 36 36 34 35 34 32 44 67 76 76 79 72 68 64 76 82 74 78 80 77 74
47 62 68 73 76 73 65 52 44 44 46 40 33 32 32 31 35 36 48 58 73 73 79 79 71 65 81 81 82 86 80 76
54 62 68 67 71 71 61 50 42 42 42 40 35 29 25 25 27 34 42 43 55 69 72 68 64 59 63 82 74 78 86 86
43 48 60 65 69 67 58 48 41 40 40 40 33 30 30 26 23 21 25 32 44 50 52 59 67 60 60 70 81 82 75 79
29 40 50 60 63 57 52 43 36 34 32 32 33 28 28 29 27 25 23 22 29 34 41 44 55 64 62 64 70 76 76 73
31 34 42 48 52 50 42 36 31 28 27 31 36 32 28 27 28 29 28 26 26 30 34 41 43 51 66 69 70 71 76 74
33 31 33 38 41 39 33 29 26 22 20 23 25 28 28 29 29 29 29 28 30 30 33 37 43 52 63 69 74 78 80 83
46 48 46 38 32 25 21 21 23 23 22 20 20 20 23 26 26 26 30 34 37 40 39 40 43 47 51 54 61 68 77 83
44 43 43 42 37 32 27 24 24 23 21 19 21 23 24 26 28 32 34 37 39 40 40 44 50 55 57 59 63 69 72 77
42 40 36 35 35 30 25 20 25 32 30 28 26 23 21 23 27 29 33 37 38 45 48 49 51 51 59 61 59 63 71 76
39 41 37 36 35 39 30 30 31 31 32 28 25 25 28 31 31 31 29 32 38 39 43 45 48 61 63 64 65 67 71 74
Wind_Direction_850mb
284 261 246 244 233 228 227 229 234 236 231 221 219 225 223 218 217 219 215 205 205 206 206 204 201 196 196 196 193 193 193 194
279 264 248 238 223 222 223 225 234 236 228 216 215 225 226 222 219 224 219 210 211 211 209 201 199 198 196 196 193 195 189 191
282 253 237 223 217 217 218 225 233 239 226 224 214 216 227 233 220 223 224 221 216 207 204 200 201 199 197 197 196 191 191 187
265 237 225 211 212 216 216 224 232 232 221 213 215 215 224 232 227 214 206 199 189 200 202 201 203 200 198 199 199 198 189 187
255 227 220 211 212 212 213 220 227 221 217 216 217 207 216 210 186 194 192 195 191 202 197 201 205 200 199 200 201 203 203 192
239 225 220 211 209 208 209 214 220 214 211 213 201 210 215 206 205 192 187 190 194 196 198 201 203 204 205 202 201 206 209 210
229 224 217 210 207 205 208 210 212 208 207 202 203 201 207 203 193 198 198 199 197 197 200 200 198 210 210 206 205 207 211 215
215 227 215 211 207 203 206 208 207 205 204 198 199 203 205 205 203 196 200 204 199 199 201 206 205 202 210 213 214 213 214 220
243 234 221 214 206 202 205 206 206 205 201 197 195 200 200 201 210 205 204 206 197 203 207 212 216 202 202 216 214 218 219 224
253 227 219 213 205 202 204 206 206 208 203 200 197 198 203 201 199 211 215 204 209 206 211 217 212 218 209 206 218 223 220 230
236 219 212 208 204 201 202 207 209 208 206 207 204 201 208 205 199 197 206 211 217 214 216 219 224 222 220 213 217 223 230 232
213 210 204 202 199 200 200 202 204 206 205 208 214 202 209 216 212 211 207 212 217 223 230 233 227 221 221 221 227 230 233 237
182 188 193 190 192 193 197 201 203 207 206 208 219 223 217 215 220 224 234 229 221 221 226 234 233 229 226 227 230 234 238 245
153 168 182 182 185 190 193 196 201 203 203 202 211 220 225 231 230 230 241 241 238 238 235 232 237 233 231 234 237 241 243 245
123 146 161 167 177 185 190 190 199 201 203 212 216 213 217 227 233 236 239 243 247 246 247 247 245 242 242 244 247 250 252 254
71 93 114 136 151 167 176 186 203 212 219 224 226 227 225 231 235 233 237 241 245 247 254 258 260 259 257 256 256 255 255 257
54 79 105 115 136 154 169 185 192 196 212 228 238 235 236 239 244 247 248 248 249 251 252 254 256 260 264 266 266 265 266 265
50 63 83 100 114 131 144 163 186 191 200 215 222 229 230 242 248 254 258 260 261 261 260 261 263 266 266 265 266 266 267 269
57 65 76 89 100 111 123 128 139 160 182 198 210 222 227 235 245 249 249 252 260 265 269 271 274 267 268 269 271 271 271 272